Weather History for KSTJ - April, 2013

Change the Weather History Date:

Sunday, April 14, 2013

  Actual Average Record
Temperature  
Mean Temperature 60 °F 54 °F  
Max Temperature 72 °F 65 °F 92 °F (2006)
Min Temperature 48 °F 42 °F 21 °F (1950)
Degree Days  
Heating Degree Days 5 12  
Month to date heating degree days 227 193  
Since 1 July heating degree days 5180 5186  
Cooling Degree Days 0 1  
Month to date cooling degree days 0 7  
Year to date cooling degree days 0 9  
Growing Degree Days 9 (Base 50)    
Moisture  
Dew Point 44 °F    
Average Humidity 57    
Maximum Humidity 71    
Minimum Humidity 43    
Precipitation  
Precipitation 0.03 in 0.12 in 1.60 in (1999)
Month to date precipitation 1.87 1.41  
Year to date precipitation 4.96 5.15  
Sea Level Pressure  
Sea Level Pressure 29.55 in    
Wind  
Wind Speed 16 mph (SW)    
Max Wind Speed 37 mph    
Max Gust Speed 47 mph    
Visibility 10 miles    
Events Rain    
T = Trace of Precipitation, MM = Missing Value Source: NWS Daily Summary

Daily Weather History Graph

Daily Weather History Graph

Search for Another Location

Airport or City:

Trip Planner

Search our weather history database for the weather conditions in past years. The results will help you decide how hot, cold, wet, or windy it might be!

Date:

Astronomy

Apr. 14, 2013 Rise Set
Actual Time 6:43 AM CDT 7:57 PM CDT
Civil Twilight 6:15 AM CDT 8:25 PM CDT
Nautical Twilight 5:41 AM CDT 8:58 PM CDT
Astronomical Twilight 5:07 AM CDT 9:33 PM CDT
Moon 9:21 AM CDT (4/14) No Moon Set
Length of Visible Light 14h 09m
Length of Day
13h 13m
Waxing Crescent, 17% of the Moon is Illuminated
Apr 14
Waxing Crescent
Apr 18
First Quarter
Apr 25
Full
May 2
Last Quarter
May 9
New

Hourly Weather History & Observations

Time (CDT) Temp. Dew Point Humidity Pressure Visibility Wind Dir Wind Speed Gust Speed Precip Events Conditions
12:53 AM 48.9 °F 37.0 °F 64% 29.68 in 10.0 mi SE 4.6 mph - N/A   Clear
1:53 AM 48.9 °F 37.9 °F 66% 29.64 in 10.0 mi Calm Calm - N/A   Clear
2:53 AM 48.0 °F 39.0 °F 71% 29.60 in 10.0 mi ESE 6.9 mph - N/A   Clear
3:53 AM 57.9 °F 43.0 °F 58% 29.57 in 10.0 mi South 15.0 mph 24.2 mph N/A   Clear
4:53 AM 60.1 °F 43.0 °F 53% 29.55 in 10.0 mi South 21.9 mph 27.6 mph N/A   Clear
5:53 AM 59.0 °F 43.0 °F 55% 29.52 in 10.0 mi South 23.0 mph 32.2 mph N/A   Clear
6:53 AM 59.0 °F 43.0 °F 55% 29.50 in 10.0 mi South 20.7 mph 27.6 mph N/A   Clear
7:53 AM 61.0 °F 44.1 °F 54% 29.49 in 10.0 mi South 23.0 mph 32.2 mph N/A   Clear
8:53 AM 62.1 °F 45.0 °F 53% 29.49 in 10.0 mi South 27.6 mph 34.5 mph N/A   Clear
9:53 AM 64.0 °F 46.0 °F 52% 29.51 in 10.0 mi SSW 19.6 mph 33.4 mph N/A   Clear
10:53 AM 68.0 °F 48.0 °F 49% 29.47 in 10.0 mi South 26.5 mph 39.1 mph N/A   Clear
11:53 AM 69.1 °F 48.0 °F 47% 29.45 in 10.0 mi SSW 27.6 mph 36.8 mph N/A   Clear
12:53 PM 70.0 °F 48.0 °F 46% 29.45 in 10.0 mi South 28.8 mph 40.3 mph N/A   Mostly Cloudy
1:53 PM 70.0 °F 48.9 °F 47% 29.46 in 10.0 mi South 20.7 mph - N/A   Overcast
3:53 PM 69.1 °F 48.0 °F 47% 29.46 in 10.0 mi SW 17.3 mph 21.9 mph N/A   Overcast
4:53 PM 68.0 °F 50.0 °F 52% 29.47 in 10.0 mi SW 15.0 mph 25.3 mph 0.00 in   Overcast
5:53 PM 63.0 °F 53.1 °F 70% 29.50 in 10.0 mi SW 5.8 mph - 0.00 in Rain Light Rain
6:53 PM 57.9 °F 48.9 °F 72% 29.55 in 10.0 mi WNW 11.5 mph - 0.02 in Rain Light Rain
7:53 PM 57.0 °F 48.0 °F 72% 29.58 in 10.0 mi WNW 11.5 mph - 0.01 in   Overcast
8:53 PM 54.0 °F 41.0 °F 62% 29.62 in 10.0 mi West 5.8 mph - N/A   Overcast
9:53 PM 57.0 °F 36.0 °F 45% 29.67 in 10.0 mi WNW 11.5 mph - N/A   Overcast
10:53 PM 55.0 °F 33.1 °F 43% 29.68 in 10.0 mi NW 12.7 mph - N/A   Mostly Cloudy
11:53 PM 54.0 °F 32.0 °F 43% 29.70 in 10.0 mi NW 8.1 mph - N/A   Overcast